Skip Page Navigation
NASA JPL Caltech
NASA Logo - Jet Propulsion Laboratory + View the NASA Portal
+ Center for Near-Earth Object Studies
JPL Home Earth Solar System Stars & Galaxies Technology
JPL Solar System Dynamics
BODIES ORBITS EPHEMERIDES TOOLS PHYSICAL DATA DISCOVERY FAQ SITE MAP
IMPORTANT: The SSD Announcement email list is now available. Major changes are coming in the near future, including possible hostname and/or URL changes. To be notified of such changes, subscribe to this email list.

Please visit this page for more details.


JPL Small-Body Database Browser
Search: [ help ]  
233570 (2007 PU29)
Classification: Main-belt Asteroid          SPK-ID: 2233570
Ephemeris | Orbit Diagram | Orbital Elements | Mission Design | Physical Parameters | Discovery Circumstances | Close-Approach Data ]

[ show orbit diagram ]
Orbital Elements at Epoch 2458600.5 (2019-Apr-27.0) TDB
Reference: JPL 19 (heliocentric ecliptic J2000)
 Element Value Uncertainty (1-sigma)   Units 
e .1819152169655266 4.7082e-08  
a 2.782891606946008 3.5042e-08 au
q 2.276641276476882 1.3295e-07 au
i 8.460651376067062 5.6795e-06 deg
node 139.1313465789485 3.9641e-05 deg
peri 123.7544032002785 4.4639e-05 deg
M 240.0978785153575 2.5819e-05 deg
tp 2459165.264291837891
(2020-Nov-11.76429184)
0.00012868 TDB
period 1695.675960893506
4.64
3.2028e-05
8.769e-08
d
yr
n .2123047140506165 4.01e-09 deg/d
Q 3.289141937415134 4.1417e-08 au
  Orbit Determination Parameters
   # obs. used (total)      353  
   data-arc span      8427 days (23.07 yr)  
   first obs. used      1996-01-13  
   last obs. used      2019-02-08  
   planetary ephem.      DE431  
   SB-pert. ephem.      SB431-N16  
   condition code      0  
   norm. resid. RMS      .60197  
   source      ORB  
   producer      Otto Matic  
   solution date      2019-Jul-14 09:27:44  

Additional Information
 Earth MOID = 1.27352 au 
 Jupiter MOID = 1.86151 au 
 T_jup = 3.292 
[ show covariance matrix ]

Ephemeris | Orbit Diagram | Orbital Elements | Mission Design | Physical Parameters | Discovery Circumstances | Close-Approach Data ]

Physical Parameter Table
Parameter Symbol Value Units Sigma Reference Notes
absolute magnitude H 15.6   n/a MPO433526  
diameter diameter 4.376 km 0.221 urn:nasa:pds:neowise_diameters_albedos::2.0[mainbelt] (http://adsabs.harvard.edu/abs/2011ApJ...741...68M)  
geometric albedo albedo 0.053   0.011 urn:nasa:pds:neowise_diameters_albedos::2.0[mainbelt] (http://adsabs.harvard.edu/abs/2011ApJ...741...68M)  

233570 (2007 PU29)          Discovered 2007-Aug-08 by LINEAR at Socorro
Reference: 20100228/Numbers.arcLast Updated: 2010-03-03

[ show close-approach data ]
Alternate Designations
 2007 PU29 = 2006 HO17 
Ephemeris | Orbit Diagram | Orbital Elements | Mission Design | Physical Parameters | Discovery Circumstances | Close-Approach Data ]
ABOUT SSD CREDITS/AWARDS PRIVACY/COPYRIGHT GLOSSARY LINKS
FirstGov 2019-Dec-11 00:55 UT
(server date/time)  
NASA Home Page
Site Manager:   Ryan S. Park
Webmaster  Alan B. Chamberlin